| time (UTC) | temp C | wind direction | speed KPH | gust KPH | rain 1hr cm | rain 24hr cm | rain mn cm | humidity % | barometer mb |
| 20260503031304 | 8 | 126 | 0.0 | 0.0 | 0.00 | 0.00 | 0.00 | 90 | 1015.9 |
| 20260503030803 | 8 | 126 | 0.0 | 0.0 | 0.00 | 0.00 | 0.00 | 90 | 1015.9 |
| 20260503030304 | 8 | 126 | 0.0 | 0.0 | 0.00 | 0.00 | 0.00 | 89 | 1015.9 |
| 20260503025319 | 9 | 126 | 0.0 | 0.0 | 0.00 | 0.00 | 0.00 | 88 | 1015.9 |
| 20260503024804 | 9 | 126 | 0.0 | 0.0 | 0.00 | 0.00 | 0.00 | 88 | 1015.9 |
| 20260503024303 | 9 | 126 | 0.0 | 1.6 | 0.00 | 0.00 | 0.00 | 87 | 1015.9 |
| 20260503023303 | 9 | 74 | 0.0 | 3.2 | 0.00 | 0.00 | 0.00 | 87 | 1016.1 |
| 20260503022803 | 9 | 74 | 1.6 | 3.2 | 0.00 | 0.00 | 0.00 | 88 | 1016.1 |
| 20260503022305 | 9 | 74 | 0.0 | 4.8 | 0.00 | 0.00 | 0.00 | 88 | 1016.1 |
| 20260503021803 | 9 | 109 | 0.0 | 8.0 | 0.00 | 0.00 | 0.00 | 88 | 1016.1 |
| 20260503021304 | 9 | 143 | 0.0 | 1.6 | 0.00 | 0.00 | 0.00 | 89 | 1016.1 |
| 20260503020803 | 9 | 143 | 0.0 | 3.2 | 0.00 | 0.00 | 0.00 | 88 | 1016.1 |
| 20260503020304 | 9 | 143 | 0.0 | 1.6 | 0.00 | 0.00 | 0.00 | 88 | 1016.1 |
| 20260503015305 | 9 | 137 | 1.6 | 3.2 | 0.00 | 0.00 | 0.00 | 87 | 1016.1 |
| 20260503014803 | 9 | 137 | 0.0 | 1.6 | 0.00 | 0.00 | 0.00 | 87 | 1016.1 |
| 20260503014303 | 9 | 137 | 1.6 | 3.2 | 0.00 | 0.00 | 0.00 | 87 | 1016.0 |
| 20260503013804 | 9 | 151 | 0.0 | 1.6 | 0.00 | 0.00 | 0.00 | 87 | 1016.0 |
| 20260503013303 | 9 | 153 | 0.0 | 1.6 | 0.00 | 0.00 | 0.00 | 87 | 1016.0 |
| 20260503012803 | 9 | 153 | 0.0 | 0.0 | 0.00 | 0.00 | 0.00 | 87 | 1016.0 |
| 20260503012305 | 9 | 153 | 0.0 | 1.6 | 0.00 | 0.00 | 0.00 | 87 | 1016.0 |
| 20260503011804 | 9 | 153 | 0.0 | 0.0 | 0.00 | 0.00 | 0.00 | 88 | 1016.0 |
| 20260503011304 | 9 | 153 | 0.0 | 0.0 | 0.00 | 0.00 | 0.00 | 87 | 1016.0 |
| 20260503010803 | 9 | 153 | 0.0 | 1.6 | 0.00 | 0.00 | 0.00 | 87 | 1016.0 |
| 20260503010303 | 10 | 153 | 0.0 | 0.0 | 0.00 | 0.00 | 0.00 | 86 | 1016.0 |
| 20260503005804 | 10 | 153 | 0.0 | 0.0 | 0.00 | 0.00 | 0.00 | 86 | 1015.9 |
| 20260503004804 | 10 | 153 | 0.0 | 1.6 | 0.00 | 0.00 | 0.00 | 86 | 1016.3 |
| 20260503004304 | 9 | 153 | 0.0 | 1.6 | 0.00 | 0.00 | 0.00 | 87 | 1016.3 |
| 20260503003803 | 9 | 153 | 0.0 | 1.6 | 0.00 | 0.00 | 0.00 | 87 | 1016.3 |
| 20260503003304 | 9 | 153 | 0.0 | 1.6 | 0.00 | 0.00 | 0.00 | 87 | 1016.3 |
| 20260503002804 | 9 | 153 | 0.0 | 1.6 | 0.00 | 0.00 | 0.00 | 87 | 1016.3 |
| 20260503002305 | 9 | 153 | 0.0 | 1.6 | 0.00 | 0.00 | 0.00 | 86 | 1016.3 |
| 20260503001804 | 9 | 153 | 0.0 | 1.6 | 0.00 | 0.00 | 0.00 | 86 | 1016.3 |
| 20260503000804 | 9 | 153 | 0.0 | 0.0 | 0.00 | 0.00 | 0.00 | 86 | 1016.3 |
| 20260503000304 | 9 | 153 | 0.0 | 0.0 | 0.00 | 0.00 | 0.00 | 86 | 1016.3 |
| 20260502235803 | 9 | 153 | 0.0 | 0.0 | 0.00 | 0.00 | 0.00 | 86 | 1016.3 |
| 20260502235305 | 9 | 153 | 0.0 | 0.0 | 0.00 | 0.00 | 0.00 | 86 | 1016.3 |
| 20260502234803 | 9 | 153 | 0.0 | 0.0 | 0.00 | 0.00 | 0.00 | 86 | 1016.3 |
| 20260502233303 | 10 | 153 | 0.0 | 0.0 | 0.00 | 0.00 | 0.00 | 84 | 1016.4 |
| 20260502232803 | 10 | 153 | 0.0 | 0.0 | 0.00 | 0.00 | 0.00 | 84 | 1016.4 |
| 20260502232305 | 10 | 153 | 0.0 | 0.0 | 0.00 | 0.00 | 0.00 | 84 | 1016.4 |
| 20260502231804 | 10 | 153 | 0.0 | 0.0 | 0.00 | 0.00 | 0.00 | 83 | 1016.4 |
| 20260502230303 | 10 | 153 | 0.0 | 0.0 | 0.00 | 0.00 | 0.00 | 82 | 1016.4 |
| 20260502225803 | 10 | 153 | 0.0 | 0.0 | 0.00 | 0.00 | 0.00 | 82 | 1016.4 |
| 20260502224819 | 10 | 153 | 0.0 | 1.6 | 0.00 | 0.00 | 0.00 | 82 | 1016.4 |
| 20260502224303 | 10 | 153 | 0.0 | 0.0 | 0.00 | 0.00 | 0.00 | 82 | 1016.4 |
| 20260502223804 | 10 | 153 | 0.0 | 0.0 | 0.00 | 0.00 | 0.00 | 81 | 1016.4 |
| 20260502223303 | 10 | 153 | 0.0 | 0.0 | 0.00 | 0.00 | 0.00 | 80 | 1016.3 |
| 20260502222305 | 11 | 153 | 0.0 | 0.0 | 0.00 | 0.00 | 0.00 | 80 | 1016.3 |
| 20260502221804 | 11 | 153 | 0.0 | 0.0 | 0.00 | 0.00 | 0.00 | 79 | 1016.3 |
| 20260502220810 | 11 | 153 | 0.0 | 0.0 | 0.00 | 0.00 | 0.00 | 79 | 1016.4 |
| 20260502220304 | 11 | 153 | 0.0 | 0.0 | 0.00 | 0.00 | 0.00 | 79 | 1016.4 |
| 20260502215804 | 11 | 153 | 0.0 | 0.0 | 0.00 | 0.00 | 0.00 | 79 | 1016.4 |
| 20260502214804 | 11 | 153 | 0.0 | 0.0 | 0.00 | 0.00 | 0.00 | 78 | 1016.4 |
| 20260502214304 | 11 | 153 | 0.0 | 0.0 | 0.00 | 0.00 | 0.00 | 78 | 1016.5 |
| 20260502213804 | 11 | 153 | 0.0 | 0.0 | 0.00 | 0.00 | 0.00 | 78 | 1016.5 |
| 20260502213304 | 11 | 153 | 0.0 | 0.0 | 0.00 | 0.00 | 0.00 | 77 | 1016.5 |
| 20260502212305 | 11 | 153 | 0.0 | 0.0 | 0.00 | 0.00 | 0.00 | 77 | 1016.5 |
| 20260502211804 | 11 | 153 | 0.0 | 0.0 | 0.00 | 0.00 | 0.00 | 76 | 1016.5 |
| 20260502211304 | 11 | 153 | 0.0 | 0.0 | 0.00 | 0.00 | 0.00 | 76 | 1016.5 |
| 20260502210803 | 12 | 153 | 0.0 | 0.0 | 0.00 | 0.00 | 0.00 | 75 | 1016.4 |
| 20260502210304 | 12 | 153 | 0.0 | 0.0 | 0.00 | 0.00 | 0.00 | 74 | 1016.7 |
| 20260502205804 | 12 | 153 | 0.0 | 0.0 | 0.00 | 0.00 | 0.00 | 74 | 1016.7 |
| 20260502205305 | 12 | 153 | 0.0 | 0.0 | 0.00 | 0.00 | 0.00 | 74 | 1016.7 |
| 20260502204804 | 12 | 153 | 0.0 | 0.0 | 0.00 | 0.00 | 0.00 | 74 | 1016.7 |
| 20260502204303 | 12 | 153 | 0.0 | 0.0 | 0.00 | 0.00 | 0.00 | 74 | 1016.7 |
| 20260502203803 | 12 | 153 | 0.0 | 0.0 | 0.00 | 0.00 | 0.00 | 72 | 1016.7 |
| 20260502203304 | 12 | 153 | 0.0 | 0.0 | 0.00 | 0.00 | 0.00 | 72 | 1016.7 |
| 20260502202819 | 12 | 153 | 0.0 | 0.0 | 0.00 | 0.00 | 0.00 | 72 | 1016.7 |
| 20260502202305 | 13 | 153 | 0.0 | 0.0 | 0.00 | 0.00 | 0.00 | 72 | 1016.7 |
| 20260502201304 | 13 | 153 | 0.0 | 0.0 | 0.00 | 0.00 | 0.00 | 71 | 1016.6 |
| 20260502200803 | 13 | 153 | 0.0 | 0.0 | 0.00 | 0.00 | 0.00 | 71 | 1016.6 |
| 20260502194304 | 14 | 153 | 0.0 | 0.0 | 0.00 | 0.00 | 0.00 | 65 | 1016.6 |
| 20260502193804 | 15 | 153 | 0.0 | 1.6 | 0.00 | 0.00 | 0.00 | 64 | 1016.6 |
| 20260502193303 | 15 | 153 | 0.0 | 0.0 | 0.00 | 0.00 | 0.00 | 64 | 1016.3 |
| 20260502192803 | 15 | 153 | 0.0 | 0.0 | 0.00 | 0.00 | 0.00 | 62 | 1016.3 |
| 20260502192305 | 15 | 153 | 0.0 | 0.0 | 0.00 | 0.00 | 0.00 | 63 | 1016.3 |
| 20260502191803 | 15 | 153 | 0.0 | 0.0 | 0.00 | 0.00 | 0.00 | 63 | 1016.3 |
| 20260502191303 | 15 | 153 | 0.0 | 0.0 | 0.00 | 0.00 | 0.00 | 64 | 1016.3 |
| 20260502190804 | 16 | 153 | 0.0 | 0.0 | 0.00 | 0.00 | 0.00 | 63 | 1016.3 |
| 20260502190304 | 16 | 153 | 0.0 | 0.0 | 0.00 | 0.00 | 0.00 | 62 | 1016.3 |
| 20260502185804 | 16 | 153 | 0.0 | 0.0 | 0.00 | 0.00 | 0.00 | 63 | 1016.1 |
| 20260502185305 | 17 | 153 | 0.0 | 0.0 | 0.00 | 0.00 | 0.00 | 59 | 1016.1 |
| 20260502184804 | 17 | 153 | 0.0 | 0.0 | 0.00 | 0.00 | 0.00 | 59 | 1016.1 |
| 20260502183303 | 18 | 153 | 0.0 | 0.0 | 0.00 | 0.00 | 0.00 | 55 | 1016.1 |
| 20260502182803 | 19 | 153 | 0.0 | 0.0 | 0.00 | 0.00 | 0.00 | 53 | 1016.1 |
| 20260502182305 | 19 | 153 | 0.0 | 1.6 | 0.00 | 0.00 | 0.00 | 54 | 1016.1 |
| 20260502181803 | 20 | 153 | 0.0 | 1.6 | 0.00 | 0.00 | 0.00 | 51 | 1016.1 |
| 20260502181304 | 20 | 153 | 0.0 | 0.0 | 0.00 | 0.00 | 0.00 | 50 | 1015.9 |
| 20260502180303 | 21 | 153 | 0.0 | 1.6 | 0.00 | 0.00 | 0.00 | 47 | 1016.2 |
| 20260502170303 | 26 | 186 | 0.0 | 3.2 | 0.00 | 0.00 | 0.00 | 28 | 1016.3 |
| 20260502163804 | 27 | 99 | 3.2 | 4.8 | 0.00 | 0.00 | 0.00 | 24 | 1016.5 |
| 20260502163304 | 27 | 173 | 0.0 | 3.2 | 0.00 | 0.00 | 0.00 | 23 | 1016.5 |
| 20260502162804 | 28 | 159 | 0.0 | 8.0 | 0.00 | 0.00 | 0.00 | 23 | 1016.5 |
| 20260502162304 | 28 | 116 | 0.0 | 8.0 | 0.00 | 0.00 | 0.00 | 23 | 1016.6 |
| 20260502161804 | 28 | 101 | 0.0 | 3.2 | 0.00 | 0.00 | 0.00 | 21 | 1017.0 |
| 20260502161304 | 28 | 101 | 1.6 | 3.2 | 0.00 | 0.00 | 0.00 | 22 | 1017.0 |
| 20260502160803 | 28 | 97 | 1.6 | 4.8 | 0.00 | 0.00 | 0.00 | 23 | 1017.0 |
| 20260502160304 | 28 | 137 | 1.6 | 3.2 | 0.00 | 0.00 | 0.00 | 21 | 1017.0 |
| 20260502152305 | 28 | 135 | 1.6 | 4.8 | 0.00 | 0.00 | 0.00 | 22 | 1017.8 |
| 20260502151803 | 29 | 13 | 1.6 | 3.2 | 0.00 | 0.00 | 0.00 | 23 | 1017.8 |
| 20260502150803 | 28 | 46 | 1.6 | 9.7 | 0.00 | 0.00 | 0.00 | 21 | 1017.8 |
| 20260502150304 | 28 | 147 | 1.6 | 8.0 | 0.00 | 0.00 | 0.00 | 24 | 1017.8 |
| 20260502130303 | 27 | 104 | 1.6 | 8.0 | 0.00 | 0.00 | 0.00 | 31 | 1019.5 |
| 20260502123303 | 26 | 107 | 3.2 | 8.0 | 0.00 | 0.00 | 0.00 | 31 | 1019.7 |
| 20260502122306 | 26 | 164 | 3.2 | 4.8 | 0.00 | 0.00 | 0.00 | 32 | 1019.8 |
| 20260502121803 | 26 | 286 | 1.6 | 4.8 | 0.00 | 0.00 | 0.00 | 36 | 1019.8 |
| 20260502121304 | 26 | 181 | 1.6 | 8.0 | 0.00 | 0.00 | 0.00 | 34 | 1020.2 |
| 20260502120804 | 26 | 165 | 3.2 | 8.0 | 0.00 | 0.00 | 0.00 | 33 | 1020.2 |
| 20260502120303 | 26 | 331 | 3.2 | 8.0 | 0.00 | 0.00 | 0.00 | 34 | 1020.2 |
| 20260502115803 | 26 | 264 | 1.6 | 9.7 | 0.00 | 0.00 | 0.00 | 34 | 1020.2 |
| 20260502115306 | 26 | 288 | 1.6 | 8.0 | 0.00 | 0.00 | 0.00 | 37 | 1020.2 |
| 20260502114803 | 26 | 234 | 1.6 | 9.7 | 0.00 | 0.00 | 0.00 | 36 | 1020.3 |
| 20260502114303 | 26 | 250 | 1.6 | 4.8 | 0.00 | 0.00 | 0.00 | 35 | 1021.3 |
| 20260502113804 | 26 | 123 | 1.6 | 3.2 | 0.00 | 0.00 | 0.00 | 35 | 1021.3 |
| 20260502113303 | 26 | 98 | 1.6 | 4.8 | 0.00 | 0.00 | 0.00 | 37 | 1021.3 |
| 20260502112803 | 26 | 345 | 1.6 | 4.8 | 0.00 | 0.00 | 0.00 | 38 | 1021.3 |
| 20260502112306 | 26 | 270 | 3.2 | 9.7 | 0.00 | 0.00 | 0.00 | 35 | 1021.3 |
| 20260502111804 | 26 | 287 | 1.6 | 8.0 | 0.00 | 0.00 | 0.00 | 36 | 1021.3 |
| 20260502111303 | 26 | 294 | 3.2 | 9.7 | 0.00 | 0.00 | 0.00 | 41 | 1021.3 |
| 20260502110304 | 26 | 298 | 1.6 | 4.8 | 0.00 | 0.00 | 0.00 | 38 | 1021.3 |
| 20260502105804 | 25 | 295 | 3.2 | 9.7 | 0.00 | 0.00 | 0.00 | 38 | 1021.3 |
| 20260502104804 | 25 | 146 | 1.6 | 11.3 | 0.00 | 0.00 | 0.00 | 40 | 1021.3 |
| 20260502104303 | 25 | 164 | 1.6 | 8.0 | 0.00 | 0.00 | 0.00 | 40 | 1021.3 |
| 20260502103803 | 25 | 337 | 3.2 | 9.7 | 0.00 | 0.00 | 0.00 | 40 | 1021.3 |
| 20260502103304 | 25 | 318 | 1.6 | 3.2 | 0.00 | 0.00 | 0.00 | 40 | 1021.5 |
| 20260502102804 | 25 | 318 | 0.0 | 8.0 | 0.00 | 0.00 | 0.00 | 38 | 1021.5 |
| 20260502102306 | 25 | 243 | 0.0 | 4.8 | 0.00 | 0.00 | 0.00 | 36 | 1021.7 |
| 20260502101803 | 25 | 271 | 1.6 | 11.3 | 0.00 | 0.00 | 0.00 | 40 | 1021.7 |
| 20260502101303 | 25 | 275 | 1.6 | 4.8 | 0.00 | 0.00 | 0.00 | 39 | 1021.7 |
| 20260502100803 | 25 | 61 | 0.0 | 3.2 | 0.00 | 0.00 | 0.00 | 38 | 1021.9 |
| 20260502100303 | 23 | 61 | 1.6 | 3.2 | 0.00 | 0.00 | 0.00 | 40 | 1021.9 |
| 20260502091303 | 21 | 83 | 1.6 | 4.8 | 0.00 | 0.00 | 0.00 | 45 | 1022.4 |
| 20260502090804 | 21 | 87 | 1.6 | 8.0 | 0.00 | 0.00 | 0.00 | 48 | 1022.4 |
| 20260502071304 | 15 | 137 | 1.6 | 4.8 | 0.00 | 0.00 | 0.00 | 59 | 1022.9 |
| 20260502070804 | 15 | 85 | 1.6 | 4.8 | 0.00 | 0.00 | 0.00 | 63 | 1022.9 |
| 20260502070303 | 15 | 97 | 1.6 | 3.2 | 0.00 | 0.00 | 0.00 | 62 | 1022.9 |
| 20260502065306 | 13 | 67 | 3.2 | 8.0 | 0.00 | 0.00 | 0.00 | 64 | 1023.0 |
| 20260502064803 | 13 | 77 | 1.6 | 4.8 | 0.00 | 0.00 | 0.00 | 65 | 1023.0 |
| 20260502064303 | 13 | 97 | 1.6 | 4.8 | 0.00 | 0.00 | 0.00 | 66 | 1023.1 |
| 20260502063303 | 12 | 88 | 1.6 | 4.8 | 0.00 | 0.00 | 0.00 | 69 | 1023.1 |
| 20260502062804 | 12 | 146 | 3.2 | 4.8 | 0.00 | 0.00 | 0.00 | 69 | 1023.1 |
| 20260502062306 | 11 | 138 | 1.6 | 4.8 | 0.00 | 0.00 | 0.00 | 72 | 1023.1 |
| 20260502061803 | 11 | 98 | 1.6 | 4.8 | 0.00 | 0.00 | 0.00 | 73 | 1023.1 |
| 20260502061304 | 11 | 138 | 1.6 | 3.2 | 0.00 | 0.00 | 0.00 | 74 | 1023.1 |
| 20260502060803 | 10 | 134 | 3.2 | 8.0 | 0.00 | 0.00 | 0.00 | 75 | 1023.2 |
| 20260502060303 | 10 | 136 | 0.0 | 3.2 | 0.00 | 0.00 | 0.00 | 77 | 1023.2 |
| 20260502054804 | 8 | 145 | 1.6 | 4.8 | 0.00 | 0.00 | 0.00 | 83 | 1023.2 |
| 20260502054303 | 8 | 114 | 1.6 | 4.8 | 0.00 | 0.00 | 0.00 | 84 | 1023.2 |
| 20260502053803 | 7 | 149 | 3.2 | 9.7 | 0.00 | 0.00 | 0.00 | 85 | 1023.3 |
| 20260502053304 | 7 | 159 | 1.6 | 8.0 | 0.00 | 0.00 | 0.00 | 86 | 1023.3 |
| 20260502052804 | 7 | 155 | 3.2 | 9.7 | 0.00 | 0.00 | 0.00 | 88 | 1023.2 |
| 20260502051804 | 6 | 94 | 1.6 | 4.8 | 0.00 | 0.00 | 0.00 | 90 | 1023.2 |
| 20260502050803 | 6 | 134 | 0.0 | 3.2 | 0.00 | 0.00 | 0.00 | 91 | 1023.2 |
| 20260502050303 | 5 | 142 | 1.6 | 8.0 | 0.00 | 0.00 | 0.00 | 92 | 1023.2 |
| 20260502045803 | 5 | 132 | 0.0 | 3.2 | 0.00 | 0.00 | 0.00 | 92 | 1023.2 |
| 20260502045306 | 5 | 132 | 0.0 | 3.2 | 0.00 | 0.00 | 0.00 | 93 | 1023.2 |
| 20260502044803 | 5 | 132 | 0.0 | 1.6 | 0.00 | 0.00 | 0.00 | 95 | 1023.2 |
| 20260502044304 | 4 | 132 | 0.0 | 1.6 | 0.00 | 0.00 | 0.00 | 95 | 1023.2 |
| 20260502043303 | 4 | 132 | 0.0 | 1.6 | 0.00 | 0.00 | 0.00 | 96 | 1023.2 |
| 20260502042804 | 4 | 132 | 0.0 | 0.0 | 0.00 | 0.00 | 0.00 | 96 | 1023.2 |
| 20260502041303 | 4 | 132 | 0.0 | 0.0 | 0.00 | 0.00 | 0.00 | 95 | 1023.2 |
| 20260502040804 | 4 | 132 | 0.0 | 0.0 | 0.00 | 0.00 | 0.00 | 94 | 1023.2 |
| 20260502040304 | 4 | 132 | 0.0 | 0.0 | 0.00 | 0.00 | 0.00 | 94 | 1023.2 |
| 20260502035803 | 4 | 132 | 0.0 | 0.0 | 0.00 | 0.00 | 0.00 | 93 | 1023.1 |
| 20260502035306 | 5 | 132 | 0.0 | 0.0 | 0.00 | 0.00 | 0.00 | 92 | 1023.1 |
| 20260502034803 | 5 | 132 | 0.0 | 0.0 | 0.00 | 0.00 | 0.00 | 92 | 1023.1 |
| 20260502034303 | 5 | 132 | 0.0 | 0.0 | 0.00 | 0.00 | 0.00 | 93 | 1023.1 |
| 20260502033804 | 5 | 132 | 0.0 | 1.6 | 0.00 | 0.00 | 0.00 | 93 | 1023.1 |
| 20260502033304 | 5 | 132 | 0.0 | 1.6 | 0.00 | 0.00 | 0.00 | 93 | 1023.1 |
| 20260502032803 | 5 | 132 | 0.0 | 0.0 | 0.00 | 0.00 | 0.00 | 93 | 1023.0 |
| 20260502032306 | 5 | 132 | 0.0 | 0.0 | 0.00 | 0.00 | 0.00 | 93 | 1023.0 |
| 20260502031804 | 5 | 132 | 0.0 | 1.6 | 0.00 | 0.00 | 0.00 | 93 | 1023.0 |